CAPE
495 457 480 1331 1294 540 657 321 333 222 176 175 191 414 771 1158 965 997 201 324 475 403 728 1427 2794 3004 3266 2995 3042 3227 2742 2403 2122 2195 2094 1928 2004 2004 1755 1712 1733 1807 1764 2079 2147 2295 3065 2464 2246
361 537 938 531 1063 715 721 556 499 492 404 369 398 585 548 906 830 350 187 407 580 431 597 1093 2645 3002 3083 3043 3150 3168 2404 2579 2451 2290 2122 1953 1865 1810 1724 1687 1748 1828 1858 1876 2101 2168 2247 3065 2437
605 937 792 880 818 781 721 673 667 525 377 338 431 435 581 577 352 198 264 517 632 521 629 1561 2718 2822 2634 2576 2456 2711 2481 1759 1898 2033 1915 1808 1736 1701 1668 1812 2008 2150 2547 2009 1959 2144 2569 2443 3053
582 1134 707 932 860 907 871 802 648 505 512 274 101 483 560 384 263 266 227 490 717 588 769 1456 2654 2063 2443 2489 2533 2319 1795 1531 1552 1658 1750 1743 1782 2000 2106 2058 1945 1984 1928 2079 2318 2218 2239 2689 2870
820 853 636 716 821 825 913 893 890 596 146 517 101 386 675 596 329 290 211 396 669 628 946 1000 2496 2583 2172 2250 1970 2034 1709 1615 1689 1809 1869 1948 2001 2052 2057 2010 2029 1909 1878 1733 1974 1816 1696 2120 2272
585 551 137 401 633 459 425 727 150 550 634 546 388 646 838 466 342 310 202 424 629 633 853 1268 2045 2620 2691 2110 1832 1901 1805 1693 1667 1524 1601 1587 1544 1770 1959 1904 1670 1607 1590 1593 1715 1531 1680 1673 1977
346 43 228 319 551 609 940 728 721 720 743 658 383 649 811 618 370 272 221 369 496 653 1299 1130 1364 1821 2119 2561 1886 1726 1681 1477 1560 1551 1465 1540 1485 1616 1822 1759 1825 1511 1561 1401 1590 1567 1392 1478 1489
807 85 3 115 353 578 916 948 987 758 1068 591 458 623 963 1049 371 357 305 258 330 568 929 1125 951 1444 1346 1594 1678 1414 1022 949 1361 1471 1500 1826 1595 1565 1721 1911 1586 1520 1455 1152 1144 1566 1501 1569 1507
427 6 2 12 19 68 1040 728 1035 980 973 912 961 928 1090 1120 360 381 454 366 239 315 348 620 773 835 1410 1559 1281 913 705 832 677 917 1134 1536 1129 1506 1503 1253 1229 1426 1343 1294 1315 1687 1201 1191 1533
43 3 7 54 50 14 673 857 1040 1071 1015 1048 1345 1235 1174 940 349 296 411 618 544 389 488 915 1090 1058 1332 860 93 175 95 37 232 18 442 2046 1287 1266 1257 1278 1436 1277 1201 1253 1238 1412 1465 1354 1187
58 17 42 116 280 459 680 1072 1025 955 787 890 1482 1398 1079 925 408 253 357 535 554 528 589 748 909 1320 1586 65 3 29 32 1 35 75 244 1166 1571 1320 894 1796 1937 1343 1094 1200 1175 1395 1004 900 853
7 8 54 259 734 829 968 1177 1198 991 965 666 1413 1395 974 850 461 324 356 472 604 874 1269 1137 1025 1229 1369 1713 293 47 28 23 98 59 356 2462 2063 873 820 1757 1384 1502 1339 1041 1163 815 843 963 1126
0 0 56 153 482 699 988 1069 1191 1229 595 822 1339 1441 1068 879 724 561 517 532 785 1088 1282 1384 1475 1693 1655 1687 1100 615 1020 1091 370 1153 1484 2058 833 807 813 1801 1448 1615 1291 927 1199 1055 935 1139 1141
0 0 0 6 176 653 736 1078 1055 1255 886 1175 1397 1538 1273 1045 1065 1043 824 813 934 1121 1267 1361 1528 2021 1934 1727 1687 1080 590 1016 1312 505 364 1089 877 849 1233 1038 1074 669 1009 938 716 1125 961 998 785
0 0 0 22 79 155 536 1139 820 1348 919 1190 1159 1379 1302 1299 1301 1340 1338 1245 1191 1219 1230 1396 1560 1617 1808 1693 1874 1629 538 746 1359 610 291 720 1413 1533 1699 851 1070 781 845 1125 1180 759 1097 1162 847
0 0 13 0 17 140 276 169 1344 1449 1025 1041 961 1162 1305 1463 1461 1508 1397 1445 1244 1208 1316 1501 1271 1319 1647 1459 1499 1124 1143 663 810 883 428 446 761 1615 1817 1309 888 1030 892 941 855 896 944 965 1049
0 44 3 0 0 67 143 54 682 1519 1264 1085 1051 1043 1218 1377 1502 1654 1518 1370 1364 1311 1443 1612 1643 1460 1501 1569 1258 972 936 1150 954 779 691 579 674 1094 1936 2394 722 1289 674 1032 1081 1402 1904 1176 1212
1 4 0 1 0 49 66 41 608 1180 1283 1176 1253 1106 1127 1228 1413 1612 1651 1535 1453 1438 1580 1763 1697 1810 1755 1554 1546 1103 1155 1256 1244 1167 827 671 879 1007 1596 1772 1370 1175 1586 1565 1305 1664 2033 980 1147
0 0 0 0 0 0 9 29 145 860 873 1259 1398 1411 1342 1210 1333 1578 1713 1662 1690 1716 1772 1922 1998 2074 2029 1670 1684 1515 1582 1571 1403 1409 1279 1065 1150 1113 1410 1475 1411 1636 1464 1505 1668 1836 1874 1893 1889
0 0 1 0 0 1 16 19 0 112 514 711 1408 1385 1434 1480 1590 1745 1886 1836 1857 1987 2108 2265 2322 2421 2339 1762 1785 1846 1878 1752 1962 1303 1481 698 1366 1741 1745 1647 1472 1571 1973 1848 1938 2117 2403 962 1580
0 0 0 0 0 0 0 24 38 1 267 743 954 1245 1309 1570 1733 1934 1959 1992 2055 2144 2264 2394 2637 2540 2439 2117 1976 2234 2258 2051 2269 1883 1711 2030 1988 2040 2002 1675 1899 1555 2188 3326 1713 1782 1732 2000 2604
40 0 0 0 0 26 0 76 198 302 125 548 1090 1219 1269 1438 1619 1956 2071 2091 2107 2272 2383 2511 2788 2796 2574 2424 2153 2481 2308 2870 2417 2009 1511 1535 2349 2098 1973 1614 2092 2239 1111 1696 1524 1240 2392 1325 1187
0 0 0 0 0 0 2 11 524 292 509 747 678 887 1264 1420 1454 1715 2103 2189 2082 2224 2399 2587 2909 3064 2866 2672 2685 2564 2633 2216 1784 2293 2001 2765 2354 2154 1804 1953 1960 2316 2111 1369 1966 1025 1915 2197 966
0 0 0 0 0 4 17 2 259 699 1049 1035 1357 1086 937 983 1638 1751 1941 2147 2249 2285 2413 2563 2958 3247 3149 3088 3075 3000 2779 3222 2429 2681 1754 1737 1758 2096 2074 2180 2007 2246 2222 1908 1900 1608 1533 1827 2795
0 0 12 50 46 127 155 182 1068 998 1299 1521 1227 1065 733 761 1451 1835 2073 2178 2287 2378 2551 2529 2873 3357 3292 3196 3193 3185 3066 3213 3171 3555 2226 2020 1607 1888 1647 2551 2987 2737 2764 2169 1980 2003 1872 1989 1595
0 0 36 127 146 199 246 211 1096 1278 1635 1427 1437 1391 1237 1241 1478 1776 2099 2287 2223 2359 2606 2621 2648 3177 3216 3231 3264 3166 3147 2873 2774 2701 2585 2340 2102 1803 2032 2069 2902 1906 2071 2144 2235 2080 1999 1762 1571
0 0 3 39 33 135 349 621 1057 1635 1670 1536 1657 1809 1856 1856 1917 2033 2039 2081 2008 2242 2405 2586 2718 2943 3047 2848 3015 3148 3045 2868 2549 2563 2195 1027 1794 2120 2207 2293 2444 2116 1987 2151 2373 2206 1733 1726 1458
0 6 24 33 242 285 367 534 957 1703 1875 1828 2049 2071 2088 2002 1933 2037 2188 2213 2177 2159 2194 2290 2376 2807 2763 2647 2711 2716 2610 2636 2503 2234 1838 1560 1780 1861 2143 2401 2434 2533 2510 2554 2908 1657 1905 1943 1490
2 18 11 44 107 255 377 417 955 1786 2169 2093 2094 2145 2129 2093 1897 2002 2642 2777 2659 2664 2717 2662 2694 2903 2752 2507 2432 2455 2372 2211 1000 731 1462 1918 1707 1633 1773 1951 2531 2732 2602 2532 3022 2708 2360 2133 2543
12 0 15 145 281 170 228 516 665 1964 2117 1996 1870 1854 1743 1296 1034 1126 1276 1530 2178 2707 2928 2947 2927 2814 2919 3201 1902 1158 1428 1867 1796 1932 1994 2248 2337 2085 2349 2238 1928 2362 2735 2635 2570 2616 2094 2337 2293
CIN
-292 -218 -210 -105 -3 0 0 0 0 0 -4 0 -6 0 0 -3 -1 -1 -43 -16 -5 -3 -2 0 0 0 0 0 0 0 0 0 0 0 0 -2 -3 0 0 -3 0 -2 -9 0 -1 0 0 -2 -5
-201 -210 -131 -69 0 -1 0 0 0 0 0 0 -2 -1 0 -6 -40 -52 -46 -8 -1 -1 0 0 0 0 0 0 0 0 0 0 0 0 0 -1 -4 -1 0 0 0 0 -2 -7 -2 -1 0 0 0
-193 -135 -36 -7 0 -1 0 0 0 -1 -2 -1 -1 -8 -8 -27 -46 -48 -36 -8 0 0 0 0 0 0 0 0 -2 0 0 -7 0 0 0 0 0 0 0 0 0 0 0 0 -1 0 0 0 0
-112 -56 -43 0 0 -11 0 0 0 0 0 -17 -22 -4 -33 -47 -39 -35 -56 -6 0 0 0 -2 0 0 0 0 0 0 -3 -8 -2 0 0 0 0 0 0 0 0 0 0 -1 0 0 0 0 0
-72 -31 -4 0 0 -2 -8 -5 -5 0 -27 0 -39 -6 -16 -23 -42 -41 -66 -7 0 0 0 0 0 0 0 0 0 0 0 -1 0 0 0 0 0 0 0 0 0 0 0 0 0 0 -1 0 -3
-9 -10 -17 -1 0 -6 -8 -10 -16 -1 -9 -3 -16 -1 -9 -13 -23 -27 -28 -2 0 0 0 0 0 0 0 0 0 0 -2 -1 -1 -2 0 0 0 0 0 -1 0 0 0 0 0 -3 0 0 -1
0 -33 -1 0 0 0 -3 -13 -1 0 0 -2 -9 0 -3 -3 -8 -32 -21 -24 -3 0 0 0 0 0 0 0 0 -1 0 -3 0 0 0 0 0 0 0 0 -1 0 0 0 0 0 0 0 0
-5 -11 -44 -3 -3 0 -5 -4 -5 0 -5 -12 -3 -1 -3 -3 -19 -14 -19 -14 -4 0 0 0 0 0 0 0 -1 0 -2 -7 -1 -1 0 0 0 0 0 -1 -3 0 0 -1 -2 0 0 0 -1
-29 0 0 0 0 -64 -4 -1 -10 -12 -2 -5 -10 -1 -4 -11 -18 -13 -6 -11 -23 -10 -2 0 0 0 0 -7 -3 -7 -15 -6 -18 -6 -1 -2 0 0 0 -3 -6 0 -1 0 -1 0 -4 -2 -1
-43 0 0 0 0 -1 -3 -4 -8 0 0 -2 -5 -7 -11 -2 -15 -25 -19 -3 -5 -16 0 0 0 -4 -2 -7 -73 -13 -25 -42 -8 -133 -42 0 0 0 -1 -9 -5 -10 -8 -2 0 0 0 -13 0
-13 0 0 -12 -2 -1 -3 -11 -11 0 0 0 0 -10 -9 -2 -7 -6 -6 -3 -4 -7 0 -4 0 0 -3 -125 -9 0 -3 -15 -3 -15 -29 0 0 0 0 0 -5 -37 -3 0 -1 -1 0 0 0
-1 -4 -5 -10 -10 -5 -9 -11 -4 -9 -13 -15 -1 -10 -14 -2 -2 -1 0 0 0 0 0 0 0 0 0 0 -29 -29 -26 -7 0 -44 -13 0 0 0 0 -20 -4 0 0 0 0 0 0 0 0
0 0 -5 -48 -9 -7 -12 -10 -5 -12 -38 -28 -16 -10 -1 0 0 0 0 0 0 0 0 0 0 -1 0 0 0 0 0 0 -1 -2 0 0 0 0 0 0 -6 0 0 0 0 0 0 0 0
0 0 0 -5 -27 -12 -12 -10 -7 -27 -42 -39 -19 -1 0 0 0 0 0 0 0 0 0 0 0 0 0 0 0 -10 -1 0 -2 0 0 0 0 0 0 -30 -12 -1 0 0 0 0 0 0 0
0 0 0 -5 -4 -18 -14 -16 -6 -32 -38 -37 -20 0 0 0 0 -1 0 -2 0 0 0 0 0 0 0 0 -3 0 0 0 0 0 0 0 0 0 0 -23 -8 -18 0 0 0 -1 0 0 0
0 0 0 0 -10 -17 -23 -38 -18 -40 -27 -19 -16 -15 -1 0 -1 -3 -6 -5 -10 0 -4 -3 -2 0 0 0 0 -1 0 -4 0 0 0 0 0 0 0 -2 -15 -1 0 0 0 0 0 0 0
0 0 -1 0 0 -14 -8 -1 -30 -39 -18 -13 -15 -15 -16 -1 -3 -8 -7 -17 -11 -11 -9 -12 -8 -5 -1 -1 0 -1 0 0 0 0 0 0 0 0 0 0 -1 0 0 0 0 -1 0 0 0
0 0 0 0 0 -20 -2 -2 -37 -50 -19 -8 -14 -13 -14 -13 -6 -5 -10 -11 -18 -23 -18 -13 -8 -5 -9 -5 -4 -2 0 0 0 0 0 0 0 0 0 0 0 0 0 0 0 0 -2 0 0
0 0 0 0 0 0 -1 -1 -2 -61 -33 -8 -12 -6 -10 -9 -8 -5 -8 -9 -23 -23 -18 -15 -11 -6 -4 -5 -1 0 0 0 -6 0 -6 -20 -1 0 0 0 0 0 -1 0 0 0 0 0 -3
0 0 0 0 0 -4 -8 -4 0 -20 -37 -21 -9 -7 -4 -8 -14 -12 -12 -12 -12 -16 -23 -27 -25 -11 -11 -18 -3 0 0 0 -5 -41 -32 -74 -4 0 0 0 0 0 0 0 0 0 -1 -8 0
0 0 0 0 0 0 0 -4 -25 -12 -64 -45 -26 -11 -7 -6 -5 -19 -20 -11 -14 -16 -27 -30 -29 -23 -25 -22 -9 0 0 0 0 0 0 0 -1 0 0 0 0 -1 -1 0 0 0 -5 -3 0
0 0 0 0 0 0 0 0 -11 -24 -45 -52 -26 -31 -11 -12 -13 -8 -15 -14 -11 -12 -23 -37 -27 -30 -35 -28 -6 -1 -1 0 0 -1 -5 0 0 0 0 -1 0 0 -9 0 0 0 -1 -24 -17
0 0 0 0 0 0 -2 -1 -7 -11 -23 -41 -51 -43 -9 -11 -11 -8 -10 -12 -10 -16 -19 -32 -42 -31 -22 -30 -12 -2 0 0 0 0 0 -1 0 -2 0 -2 0 0 0 0 0 -30 0 -7 -8
0 0 0 0 0 0 -1 -7 0 -3 -45 -56 -77 -83 -60 -27 -12 -19 -12 -13 -18 -23 -30 -27 -46 -46 -38 -24 -21 -9 -10 -4 0 -1 0 0 -2 0 -1 0 -2 0 0 0 0 -1 0 -15 0
0 0 0 0 0 0 -8 -4 -18 -65 -97 -99 -128 -116 -94 -52 -29 -27 -25 -13 -16 -20 -39 -39 -58 -46 -41 -37 -24 -15 -13 -2 -4 -2 0 -2 -1 0 0 0 0 -2 0 0 0 0 0 0 0
0 0 0 0 0 0 -16 0 0 -99 -105 -157 -159 -147 -139 -74 -48 -35 -35 -22 -50 -28 -46 -42 -62 -56 -35 -25 -18 -16 -12 -9 -1 0 0 0 0 0 0 0 -2 0 0 0 0 0 0 0 0
0 0 -1 0 -4 0 0 -5 -51 -70 -85 -120 -140 -169 -168 -154 -142 -117 -104 -102 -87 -45 -50 -49 -59 -57 -36 -32 -20 -14 -9 -6 -6 -5 -13 -75 -20 0 0 -5 -1 -8 0 0 0 0 0 0 0
0 -3 0 0 0 -1 0 0 0 -28 -58 -106 -107 -142 -167 -168 -146 -115 -88 -82 -81 -63 -72 -82 -66 -41 -37 -48 -26 -16 -17 -3 -3 -7 -18 -25 -12 -23 -17 -2 0 -1 0 0 0 0 0 0 0
-5 -2 -1 -2 0 -1 0 0 -4 -18 -78 -103 -122 -132 -132 -127 -140 -130 -81 -61 -68 -68 -57 -58 -42 -6 -26 -53 -54 -34 -20 -4 -71 -89 -13 -13 -18 -34 -46 -41 -10 -3 -4 0 0 0 0 0 0
-3 0 -2 0 0 0 -1 0 -90 -44 -87 -118 -160 -157 -161 -198 -205 -185 -161 -142 -77 -37 -29 -30 -10 -6 -9 -1 -42 -80 -55 -14 -1 0 0 0 -3 -18 -6 -5 -19 -3 0 -7 0 0 0 0 0
Wind_Speed
13 11 12 11 11 6 1 2 9 10 9 6 9 3 4 14 12 4 18 15 17 15 14 14 12 14 17 17 13 13 15 15 15 14 13 12 12 10 11 9 8 8 6 5 4 6 8 9 9
6 11 12 7 8 3 4 3 6 8 11 11 10 8 3 4 7 9 15 19 21 17 13 15 12 14 14 15 13 13 13 13 14 14 13 13 13 13 11 9 10 9 6 4 4 3 6 8 9
10 9 12 9 6 5 6 7 6 8 9 5 8 9 6 5 3 16 16 21 19 16 16 18 14 14 12 11 11 10 10 11 13 13 11 11 12 12 10 10 11 9 7 6 4 3 4 5 6
9 7 6 4 4 10 9 6 3 12 12 14 7 13 14 5 9 6 19 22 20 14 16 18 13 15 13 10 11 8 8 8 9 12 10 10 10 10 10 10 10 7 4 4 3 2 2 3 6
14 12 4 2 7 12 10 5 4 8 2 10 7 14 12 7 6 16 18 19 17 14 17 15 10 12 10 9 8 5 4 4 6 9 8 8 8 9 11 10 10 7 6 6 2 2 4 4 5
9 11 8 9 12 8 5 4 5 5 13 8 15 16 10 10 16 17 17 17 16 14 15 7 9 9 9 8 6 5 2 2 3 6 8 7 8 9 11 9 9 8 7 4 1 3 4 4 8
1 nan 8 10 11 10 6 6 5 9 11 11 13 14 6 9 14 17 15 14 12 11 12 6 10 9 11 9 7 5 4 4 5 6 8 8 9 10 9 9 10 6 6 5 2 2 5 6 8
3 nan nan 11 9 13 11 6 5 3 6 11 3 3 9 16 19 19 15 15 12 12 12 12 9 11 15 12 10 5 9 9 7 8 10 10 11 11 12 10 8 8 7 8 6 4 3 5 6
7 nan nan nan nan nan 7 5 5 3 8 3 2 2 16 22 24 20 16 17 15 13 13 11 12 14 11 9 17 18 16 24 20 18 16 12 15 11 9 4 5 9 9 9 8 4 4 5 5
nan nan nan nan nan nan 7 4 6 7 7 8 5 13 21 21 22 22 19 17 18 17 15 12 10 8 13 19 nan 10 nan nan 21 nan 19 15 13 12 13 4 7 11 9 8 9 7 5 9 5
nan nan nan 4 6 4 6 5 3 3 5 8 12 17 20 22 21 20 19 18 18 18 15 17 15 16 11 nan nan nan nan nan nan nan 17 17 12 10 8 8 5 7 7 5 13 10 10 5 11
nan nan nan 6 2 3 5 3 3 1 5 7 18 19 17 19 19 20 19 17 16 16 15 17 17 15 16 13 19 nan nan nan nan nan 17 11 11 7 11 5 11 5 8 3 8 7 6 6 6
nan nan nan 6 2 2 4 3 1 7 9 16 20 17 16 16 17 17 17 15 14 15 14 15 14 12 13 15 15 4 3 10 10 10 13 10 6 4 8 7 6 4 8 4 5 6 8 7 13
nan nan nan nan 4 6 10 8 12 8 12 14 16 19 17 16 17 15 15 14 14 11 11 11 13 12 9 12 14 7 14 13 13 7 6 7 7 5 5 3 3 9 6 5 6 5 8 9 12
nan nan nan nan nan 12 17 14 14 17 17 18 21 23 20 18 17 15 14 13 13 12 10 9 10 13 10 10 10 9 14 13 14 12 8 6 6 6 6 5 3 10 9 6 4 4 7 11 9
nan nan nan nan nan 10 24 10 9 17 18 20 22 23 22 20 18 16 15 12 13 10 10 8 8 12 13 10 10 9 11 11 11 9 9 3 6 6 6 4 11 10 7 2 2 1 2 5 6
nan nan nan nan nan nan 17 nan 9 16 18 19 19 21 21 20 20 16 15 15 13 13 12 11 11 11 12 9 7 8 8 9 8 8 8 5 5 6 7 10 10 7 6 3 1 5 6 2 4
nan nan nan nan nan nan nan nan 6 13 15 16 18 18 18 20 23 20 20 16 14 13 12 11 12 12 10 8 7 6 7 8 6 6 7 5 3 5 7 9 6 4 7 6 3 7 1 1 1
nan nan nan nan nan nan nan nan 6 11 15 16 17 18 19 20 19 21 20 20 19 18 17 18 15 15 11 10 8 9 9 9 5 9 5 6 3 5 7 6 5 2 5 11 7 7 4 2 3
nan nan nan nan nan nan nan nan nan 5 12 17 21 20 21 19 18 18 19 21 23 23 23 23 23 21 14 10 10 6 6 8 14 5 8 9 8 3 4 4 3 7 3 4 9 9 9 7 3
nan nan nan nan nan nan nan nan nan nan 4 9 15 19 21 18 19 18 18 20 22 24 23 23 23 23 19 14 11 11 9 8 10 11 10 11 11 10 4 3 5 3 4 2 8 12 11 10 8
nan nan nan nan nan nan nan nan 11 9 9 7 12 15 20 22 17 16 19 23 22 22 21 22 21 21 22 20 16 20 17 14 13 13 12 10 12 9 9 7 7 6 4 5 10 12 15 13 11
nan nan nan nan nan nan nan nan 23 14 18 14 9 5 14 18 19 15 17 21 21 19 20 22 25 25 23 23 23 18 18 14 13 12 14 15 11 12 11 10 8 7 7 8 7 11 14 14 10
nan nan nan nan nan nan nan nan 20 19 13 10 9 1 8 13 13 12 14 20 25 16 15 19 24 26 27 25 22 21 21 17 14 17 14 12 13 16 16 13 8 7 10 7 2 5 11 14 10
nan nan nan nan nan 6 19 15 23 17 15 16 13 10 9 14 12 13 18 20 19 20 14 18 22 24 25 29 21 24 22 19 18 18 19 19 14 12 9 12 12 9 7 7 6 8 10 12 10
nan nan nan 4 6 14 15 9 25 16 15 16 19 14 14 16 16 16 16 17 16 18 22 15 15 17 21 25 22 17 18 18 11 10 14 22 19 15 15 9 13 9 6 7 11 10 8 9 9
nan nan nan nan nan 9 14 17 13 11 16 18 20 19 19 16 17 20 20 21 19 21 20 20 14 13 16 21 16 18 17 17 8 10 20 24 18 11 10 9 13 9 7 9 9 11 14 12 13
nan nan nan nan 7 4 15 12 17 16 16 17 18 20 23 23 24 25 23 20 17 18 16 17 23 26 29 27 19 15 14 17 17 17 20 22 8 7 8 9 10 10 10 11 12 11 13 13 15
nan nan nan nan 16 11 7 12 25 22 20 22 24 22 25 26 28 26 25 24 23 23 26 29 29 29 28 28 28 24 20 21 21 20 19 17 12 15 16 14 12 11 11 11 16 13 10 13 15
nan nan nan 9 13 8 22 17 24 29 23 24 24 26 27 28 30 30 30 30 29 31 31 32 33 34 33 34 32 27 27 25 21 21 21 20 18 16 11 8 15 15 14 15 11 13 15 14 15
Wind_Direction
62 50 97 74 73 92 228 308 325 299 318 315 322 64 217 175 161 239 323 324 321 316 311 327 325 336 344 342 345 2 358 12 10 16 29 30 33 28 25 16 10 346 345 330 296 269 277 276 275
86 74 85 89 100 290 282 335 285 235 274 311 304 340 193 206 196 324 321 330 324 305 309 305 305 316 332 353 347 356 358 13 19 20 24 27 32 35 28 19 20 12 350 343 326 281 250 275 272
100 87 85 98 120 236 307 311 276 278 296 319 312 251 228 190 15 329 312 333 331 313 305 285 296 309 314 329 346 350 352 5 14 21 28 31 37 34 32 28 23 24 4 3 0 328 271 289 306
93 37 32 87 265 217 284 345 274 305 266 266 271 271 281 265 325 321 327 334 320 327 322 300 297 308 301 308 323 336 343 3 22 32 30 33 42 35 32 30 22 29 25 21 5 343 337 346 340
81 64 32 338 279 294 309 331 284 293 307 287 268 274 263 307 308 315 331 342 330 334 313 316 319 312 308 310 312 319 344 17 27 46 46 40 44 33 32 25 19 11 20 19 39 23 46 37 353
46 54 359 300 295 302 323 346 326 305 309 312 305 286 254 303 324 326 341 344 353 344 322 327 331 333 323 324 317 292 316 59 46 55 55 54 52 47 38 24 22 25 7 9 330 46 69 57 30
49 nan 267 292 295 301 275 308 313 304 299 275 316 262 277 350 341 335 344 347 350 334 314 353 327 337 318 309 305 255 202 170 131 101 80 73 67 62 48 42 30 31 23 25 19 60 73 49 45
90 nan nan 279 279 277 288 306 312 11 314 341 10 312 1 6 353 346 348 343 340 332 339 337 314 335 323 289 303 276 184 157 131 106 89 87 81 70 53 57 37 61 47 41 34 24 59 46 43
38 nan nan nan nan nan 293 321 310 324 344 357 102 141 315 345 348 347 355 351 347 345 347 335 352 343 315 274 261 247 224 188 165 148 116 92 82 35 9 60 58 77 65 53 56 22 35 62 78
nan nan nan nan nan nan 292 271 304 335 338 345 296 284 315 337 347 352 2 359 351 350 348 331 341 358 312 295 nan 332 nan nan 161 nan 129 112 113 126 131 139 78 70 73 46 64 41 48 73 67
nan nan nan 250 252 288 294 316 326 325 330 356 341 320 333 340 353 360 8 8 357 351 344 345 350 6 328 nan nan nan nan nan nan nan 122 105 104 85 65 104 83 100 74 57 60 42 67 76 135
nan nan nan 162 332 319 316 311 336 338 221 315 325 334 338 350 1 6 13 13 3 352 353 346 357 7 353 358 346 nan nan nan nan nan 98 106 101 85 82 115 118 116 106 92 118 84 110 118 116
nan nan nan 132 70 82 2 20 206 289 297 305 318 340 356 359 356 6 17 14 14 4 353 353 358 359 348 356 348 323 84 93 77 71 69 82 97 97 100 85 109 132 101 101 121 99 62 75 115
nan nan nan nan 108 60 69 58 54 5 331 319 338 1 6 3 0 360 12 12 14 9 353 356 3 353 350 359 350 34 62 72 94 99 101 76 99 55 125 183 189 152 168 115 133 101 90 87 102
nan nan nan nan nan 117 82 39 55 6 2 1 6 12 11 10 8 16 11 8 12 10 357 354 6 9 16 19 340 20 67 76 87 97 97 100 94 61 98 303 331 172 165 136 102 110 98 108 110
nan nan nan nan nan 127 90 316 353 15 9 12 11 20 22 18 15 20 14 30 21 28 2 2 6 9 9 13 359 50 22 68 72 53 68 62 103 107 67 314 161 151 167 157 142 92 94 123 119
nan nan nan nan nan nan 100 nan 352 16 29 16 12 9 16 23 29 21 23 11 25 28 14 14 2 12 8 13 36 36 53 44 43 39 39 31 90 112 92 130 170 170 192 209 228 240 236 146 188
nan nan nan nan nan nan nan nan 333 6 20 18 11 5 7 15 24 25 31 19 16 22 17 10 6 9 8 12 17 26 25 16 28 17 23 19 68 128 130 142 140 184 217 214 240 272 312 144 84
nan nan nan nan nan nan nan nan 327 349 7 13 16 1 3 8 7 12 23 26 24 23 22 19 5 360 5 1 2 12 14 348 333 321 332 1 77 132 158 156 149 53 189 210 212 268 287 93 90
nan nan nan nan nan nan nan nan nan 354 18 15 19 8 1 4 2 17 20 31 37 31 29 26 25 14 10 6 357 360 357 360 2 24 26 23 48 75 162 181 189 144 122 233 219 240 243 155 74
nan nan nan nan nan nan nan nan nan nan 51 12 15 29 20 10 10 17 27 29 34 40 42 40 34 24 18 16 357 345 356 11 359 1 355 3 26 24 356 287 279 250 215 186 235 245 253 228 167
nan nan nan nan nan nan nan nan 248 238 275 333 8 28 38 30 22 8 24 35 39 41 40 41 40 34 37 31 20 16 9 1 349 345 345 3 354 6 355 323 305 294 282 265 251 217 238 245 183
nan nan nan nan nan nan nan nan 269 268 280 271 276 55 49 31 23 17 17 24 27 24 35 32 31 32 30 27 41 31 32 17 8 350 336 350 337 344 338 350 324 318 318 322 232 206 222 236 242
nan nan nan nan nan nan nan nan 265 241 240 257 236 354 41 42 5 15 7 12 13 5 14 14 20 27 25 19 21 32 37 26 13 345 349 337 345 329 337 339 332 329 320 335 230 214 233 243 251
nan nan nan nan nan 189 233 173 238 228 230 228 236 231 281 351 343 350 344 342 331 355 337 356 7 23 22 13 19 20 29 23 13 17 8 339 321 305 324 325 324 307 312 313 301 277 245 241 238
nan nan nan 183 263 277 221 198 242 235 230 230 244 256 270 293 313 326 331 334 334 346 349 355 6 11 19 21 18 17 1 339 341 352 341 339 314 304 307 300 302 315 293 298 301 294 286 286 279
nan nan nan nan nan 136 248 245 262 264 251 249 255 256 260 266 286 295 301 314 330 340 348 347 343 346 348 354 358 349 347 8 25 336 329 321 295 253 289 289 297 313 313 308 302 291 287 275 287
nan nan nan nan 255 170 279 233 249 286 277 259 267 272 266 268 285 283 283 289 300 305 312 327 334 320 324 329 339 338 342 341 336 330 341 351 351 317 296 287 286 294 289 293 295 287 298 287 280
nan nan nan nan 193 185 293 305 256 280 286 277 270 269 269 268 268 270 273 274 277 282 286 292 297 297 304 305 309 319 326 330 327 326 329 325 331 324 333 289 281 289 285 278 286 286 275 287 289
nan nan nan 205 292 281 197 243 267 283 284 278 277 277 277 277 278 276 273 269 270 275 277 282 289 295 301 306 308 304 311 315 317 312 310 308 306 309 328 292 262 267 276 281 270 278 277 283 284